Time,TemperatureF,DewpointF,PressureIn,WindDirection,WindDirectionDegrees,WindSpeedMPH,WindSpeedGustMPH,Humidity,HourlyPrecipIn,Conditions,Clouds,dailyrainin,SoftwareType,DateUTC
2013-06-05 00:02:00,60.0,11.0,-100.00,ESE,108,6.0,8.0,14,-99.99,,,-99.99,,2013-06-05 07:02:00,
2013-06-05 00:12:00,61.0,11.0,-100.00,ESE,104,5.0,6.0,14,-99.99,,,-99.99,,2013-06-05 07:12:00,
2013-06-05 00:22:00,64.0,8.0,-100.00,ESE,118,5.0,6.0,11,-99.99,,,-99.99,,2013-06-05 07:22:00,
2013-06-05 00:32:00,65.0,7.0,-100.00,ESE,115,5.0,7.0,10,-99.99,,,-99.99,,2013-06-05 07:32:00,
2013-06-05 00:42:00,64.0,8.0,-100.00,ESE,113,5.0,8.0,11,-99.99,,,-99.99,,2013-06-05 07:42:00,
2013-06-05 00:52:00,65.0,7.0,-100.00,ESE,117,5.0,7.0,10,-99.99,,,-99.99,,2013-06-05 07:52:00,
2013-06-05 01:02:00,63.0,8.0,-100.00,ESE,108,6.0,8.0,11,-99.99,,,-99.99,,2013-06-05 08:02:00,
2013-06-05 01:12:00,62.0,7.0,-100.00,ESE,106,5.0,7.0,11,-99.99,,,-99.99,,2013-06-05 08:12:00,
2013-06-05 01:22:00,62.0,7.0,-100.00,East,101,5.0,6.0,11,-99.99,,,-99.99,,2013-06-05 08:22:00,
2013-06-05 01:32:00,62.0,7.0,-100.00,ESE,105,5.0,7.0,11,-99.99,,,-99.99,,2013-06-05 08:32:00,
2013-06-05 01:42:00,62.0,9.0,-100.00,East,97,4.0,6.0,12,-99.99,,,-99.99,,2013-06-05 08:42:00,
2013-06-05 01:52:00,62.0,9.0,-100.00,ESE,105,5.0,6.0,12,-99.99,,,-99.99,,2013-06-05 08:52:00,
2013-06-05 02:02:00,62.0,9.0,-100.00,ESE,102,4.0,6.0,12,-99.99,,,-99.99,,2013-06-05 09:02:00,
2013-06-05 02:12:00,63.0,8.0,-100.00,ESE,105,5.0,7.0,11,-99.99,,,-99.99,,2013-06-05 09:12:00,
2013-06-05 02:22:00,63.0,8.0,-100.00,ESE,107,5.0,7.0,11,-99.99,,,-99.99,,2013-06-05 09:22:00,
2013-06-05 02:32:00,63.0,8.0,-100.00,ESE,105,5.0,7.0,11,-99.99,,,-99.99,,2013-06-05 09:32:00,
2013-06-05 02:42:00,63.0,8.0,-100.00,ESE,102,4.0,6.0,11,-99.99,,,-99.99,,2013-06-05 09:42:00,
2013-06-05 02:52:00,62.0,9.0,-100.00,ESE,106,5.0,6.0,12,-99.99,,,-99.99,,2013-06-05 09:52:00,
2013-06-05 03:02:00,62.0,9.0,-100.00,ESE,102,4.0,6.0,12,-99.99,,,-99.99,,2013-06-05 10:02:00,
2013-06-05 03:12:00,61.0,11.0,-100.00,East,94,3.0,6.0,14,-99.99,,,-99.99,,2013-06-05 10:12:00,
2013-06-05 03:22:00,62.0,11.0,-100.00,ESE,105,5.0,6.0,13,-99.99,,,-99.99,,2013-06-05 10:22:00,
2013-06-05 03:33:00,63.0,8.0,-100.00,ESE,109,4.0,7.0,11,-99.99,,,-99.99,,2013-06-05 10:33:00,
2013-06-05 03:42:00,62.0,7.0,-100.00,ESE,107,3.0,6.0,11,-99.99,,,-99.99,,2013-06-05 10:42:00,
2013-06-05 03:52:00,63.0,8.0,-100.00,ESE,111,4.0,6.0,11,-99.99,,,-99.99,,2013-06-05 10:52:00,
2013-06-05 04:02:00,64.0,8.0,-100.00,ESE,113,5.0,6.0,11,-99.99,,,-99.99,,2013-06-05 11:02:00,
2013-06-05 04:12:00,64.0,8.0,-100.00,ESE,105,4.0,6.0,11,-99.99,,,-99.99,,2013-06-05 11:12:00,
2013-06-05 04:21:00,63.0,8.0,-100.00,ESE,102,5.0,6.0,11,-99.99,,,-99.99,,2013-06-05 11:21:00,
2013-06-05 04:32:00,63.0,8.0,-100.00,ESE,112,5.0,7.0,11,-99.99,,,-99.99,,2013-06-05 11:32:00,
2013-06-05 04:42:00,63.0,8.0,-100.00,ESE,120,4.0,6.0,11,-99.99,,,-99.99,,2013-06-05 11:42:00,
2013-06-05 04:52:00,63.0,8.0,-100.00,ESE,110,4.0,6.0,11,-99.99,,,-99.99,,2013-06-05 11:52:00,
2013-06-05 05:01:00,63.0,6.0,-100.00,East,92,3.0,5.0,10,-99.99,,,-99.99,,2013-06-05 12:01:00,
2013-06-05 05:12:00,64.0,6.0,-100.00,East,86,3.0,5.0,10,-99.99,,,-99.99,,2013-06-05 12:12:00,
2013-06-05 05:22:00,64.0,6.0,-100.00,ENE,64,4.0,6.0,10,-99.99,,,-99.99,,2013-06-05 12:22:00,
2013-06-05 05:32:00,65.0,5.0,-100.00,NE,48,4.0,6.0,9,-99.99,,,-99.99,,2013-06-05 12:32:00,
2013-06-05 05:43:00,64.0,6.0,-100.00,ENE,57,3.0,5.0,10,-99.99,,,-99.99,,2013-06-05 12:43:00,
2013-06-05 05:52:00,65.0,7.0,-100.00,ENE,71,3.0,5.0,10,-99.99,,,-99.99,,2013-06-05 12:52:00,
2013-06-05 06:02:00,64.0,6.0,-100.00,East,82,3.0,5.0,10,-99.99,,,-99.99,,2013-06-05 13:02:00,
2013-06-05 06:12:00,64.0,6.0,-100.00,ENE,72,3.0,5.0,10,-99.99,,,-99.99,,2013-06-05 13:12:00,
2013-06-05 06:21:00,64.0,6.0,-100.00,ENE,67,3.0,5.0,10,-99.99,,,-99.99,,2013-06-05 13:21:00,
2013-06-05 06:32:00,64.0,8.0,-100.00,NE,47,3.0,4.0,11,-99.99,,,-99.99,,2013-06-05 13:32:00,
2013-06-05 06:42:00,63.0,10.0,-100.00,NE,51,3.0,4.0,12,-99.99,,,-99.99,,2013-06-05 13:42:00,
2013-06-05 06:52:00,63.0,10.0,-100.00,East,96,2.0,4.0,12,-99.99,,,-99.99,,2013-06-05 13:52:00,
2013-06-05 07:01:00,63.0,10.0,-100.00,ESE,113,4.0,5.0,12,-99.99,,,-99.99,,2013-06-05 14:01:00,
2013-06-05 07:12:00,64.0,10.0,-100.00,East,100,4.0,5.0,12,-99.99,,,-99.99,,2013-06-05 14:12:00,
2013-06-05 07:22:00,63.0,13.0,-100.00,ESE,107,4.0,5.0,14,-99.99,,,-99.99,,2013-06-05 14:22:00,
2013-06-05 07:32:00,62.0,14.0,-100.00,East,100,4.0,5.0,15,-99.99,,,-99.99,,2013-06-05 14:32:00,
2013-06-05 07:42:00,63.0,15.0,-100.00,East,96,3.0,4.0,15,-99.99,,,-99.99,,2013-06-05 14:42:00,
2013-06-05 07:52:00,65.0,15.0,-100.00,East,97,2.0,3.0,14,-99.99,,,-99.99,,2013-06-05 14:52:00,
2013-06-05 08:02:00,67.0,16.0,-100.00,East,99,2.0,2.0,14,-99.99,,,-99.99,,2013-06-05 15:02:00,
2013-06-05 08:12:00,70.0,17.0,-100.00,NE,55,0.0,1.0,13,-99.99,,,-99.99,,2013-06-05 15:12:00,
2013-06-05 08:22:00,70.0,19.0,-100.00,North,358,1.0,2.0,14,-99.99,,,-99.99,,2013-06-05 15:22:00,
2013-06-05 08:33:00,70.0,20.0,-100.00,NNW,328,1.0,2.0,15,-99.99,,,-99.99,,2013-06-05 15:33:00,
2013-06-05 08:42:00,69.0,22.0,-100.00,WNW,298,1.0,2.0,17,-99.99,,,-99.99,,2013-06-05 15:42:00,
2013-06-05 08:53:00,70.0,25.0,-100.00,WNW,288,2.0,3.0,18,-99.99,,,-99.99,,2013-06-05 15:53:00,
2013-06-05 09:03:00,70.0,22.0,-100.00,WNW,283,2.0,4.0,16,-99.99,,,-99.99,,2013-06-05 16:03:00,
2013-06-05 09:12:00,70.0,23.0,-100.00,WNW,284,3.0,4.0,17,-99.99,,,-99.99,,2013-06-05 16:12:00,
2013-06-05 09:22:00,70.0,25.0,-100.00,WNW,290,4.0,5.0,18,-99.99,,,-99.99,,2013-06-05 16:22:00,
2013-06-05 09:32:00,69.0,27.0,-100.00,WNW,285,3.0,6.0,21,-99.99,,,-99.99,,2013-06-05 16:32:00,
2013-06-05 09:42:00,69.0,34.0,-100.00,WNW,297,4.0,6.0,27,-99.99,,,-99.99,,2013-06-05 16:42:00,
2013-06-05 09:53:00,69.0,37.0,-100.00,WNW,294,4.0,7.0,31,-99.99,,,-99.99,,2013-06-05 16:53:00,
2013-06-05 10:02:00,68.0,38.0,-100.00,WNW,292,3.0,5.0,33,-99.99,,,-99.99,,2013-06-05 17:02:00,
2013-06-05 10:12:00,68.0,42.0,-100.00,West,275,3.0,6.0,39,-99.99,,,-99.99,,2013-06-05 17:12:00,
2013-06-05 10:22:00,68.0,44.0,-100.00,West,276,4.0,6.0,42,-99.99,,,-99.99,,2013-06-05 17:22:00,
2013-06-05 10:32:00,67.0,43.0,-100.00,WNW,288,3.0,6.0,41,-99.99,,,-99.99,,2013-06-05 17:32:00,
2013-06-05 10:42:00,67.0,43.0,-100.00,WNW,291,4.0,7.0,42,-99.99,,,-99.99,,2013-06-05 17:42:00,
2013-06-05 10:52:00,68.0,44.0,-100.00,WNW,287,3.0,7.0,42,-99.99,,,-99.99,,2013-06-05 17:52:00,
2013-06-05 11:02:00,68.0,43.0,-100.00,WNW,292,4.0,7.0,40,-99.99,,,-99.99,,2013-06-05 18:02:00,
2013-06-05 11:12:00,69.0,42.0,-100.00,WNW,291,4.0,7.0,38,-99.99,,,-99.99,,2013-06-05 18:12:00,
2013-06-05 11:22:00,70.0,43.0,-100.00,WNW,302,5.0,8.0,38,-99.99,,,-99.99,,2013-06-05 18:22:00,
2013-06-05 11:32:00,71.0,43.0,-100.00,WNW,292,4.0,8.0,37,-99.99,,,-99.99,,2013-06-05 18:32:00,
2013-06-05 11:42:00,70.0,42.0,-100.00,WNW,299,5.0,8.0,36,-99.99,,,-99.99,,2013-06-05 18:42:00,
2013-06-05 11:52:00,70.0,42.0,-100.00,WNW,299,5.0,8.0,36,-99.99,,,-99.99,,2013-06-05 18:52:00,
2013-06-05 12:02:00,71.0,43.0,-100.00,WNW,299,6.0,9.0,37,-99.99,,,-99.99,,2013-06-05 19:02:00,
2013-06-05 12:12:00,71.0,44.0,-100.00,WNW,293,5.0,9.0,38,-99.99,,,-99.99,,2013-06-05 19:12:00,
2013-06-05 12:22:00,71.0,45.0,-100.00,WNW,291,5.0,10.0,39,-99.99,,,-99.99,,2013-06-05 19:22:00,
2013-06-05 12:32:00,72.0,46.0,-100.00,WNW,289,5.0,9.0,39,-99.99,,,-99.99,,2013-06-05 19:32:00,
2013-06-05 12:42:00,72.0,45.0,-100.00,WNW,286,5.0,11.0,38,-99.99,,,-99.99,,2013-06-05 19:42:00,
2013-06-05 12:52:00,72.0,44.0,-100.00,WNW,282,5.0,10.0,37,-99.99,,,-99.99,,2013-06-05 19:52:00,
2013-06-05 13:02:00,73.0,45.0,-100.00,West,277,5.0,10.0,37,-99.99,,,-99.99,,2013-06-05 20:02:00,
2013-06-05 13:12:00,73.0,45.0,-100.00,WSW,257,6.0,9.0,37,-99.99,,,-99.99,,2013-06-05 20:12:00,
2013-06-05 13:22:00,73.0,47.0,-100.00,West,277,6.0,11.0,39,-99.99,,,-99.99,,2013-06-05 20:22:00,
2013-06-05 13:32:00,73.0,47.0,-100.00,WNW,288,5.0,10.0,39,-99.99,,,-99.99,,2013-06-05 20:32:00,
2013-06-05 13:42:00,73.0,47.0,-100.00,WNW,285,6.0,10.0,40,-99.99,,,-99.99,,2013-06-05 20:42:00,
2013-06-05 13:52:00,73.0,47.0,-100.00,WNW,296,5.0,10.0,39,-99.99,,,-99.99,,2013-06-05 20:52:00,
2013-06-05 14:02:00,74.0,47.0,-100.00,West,268,5.0,12.0,38,-99.99,,,-99.99,,2013-06-05 21:02:00,
2013-06-05 14:12:00,75.0,46.0,-100.00,WNW,282,5.0,12.0,36,-99.99,,,-99.99,,2013-06-05 21:12:00,
2013-06-05 14:22:00,75.0,45.0,-100.00,WSW,258,5.0,10.0,35,-99.99,,,-99.99,,2013-06-05 21:22:00,
2013-06-05 14:33:00,76.0,46.0,-100.00,WSW,248,4.0,9.0,34,-99.99,,,-99.99,,2013-06-05 21:33:00,
2013-06-05 14:43:00,76.0,46.0,-100.00,WNW,284,6.0,10.0,34,-99.99,,,-99.99,,2013-06-05 21:43:00,
2013-06-05 14:53:00,76.0,45.0,-100.00,West,274,6.0,11.0,33,-99.99,,,-99.99,,2013-06-05 21:53:00,
2013-06-05 15:02:00,76.0,44.0,-100.00,West,271,5.0,13.0,32,-99.99,,,-99.99,,2013-06-05 22:02:00,
2013-06-05 15:12:00,77.0,45.0,-100.00,WSW,253,6.0,14.0,32,-99.99,,,-99.99,,2013-06-05 22:12:00,
2013-06-05 15:22:00,77.0,45.0,-100.00,West,270,6.0,11.0,32,-99.99,,,-99.99,,2013-06-05 22:22:00,
2013-06-05 15:32:00,77.0,45.0,-100.00,West,276,7.0,13.0,32,-99.99,,,-99.99,,2013-06-05 22:32:00,
2013-06-05 15:42:00,77.0,46.0,-100.00,West,275,6.0,11.0,33,-99.99,,,-99.99,,2013-06-05 22:42:00,
2013-06-05 15:52:00,77.0,46.0,-100.00,West,274,5.0,12.0,33,-99.99,,,-99.99,,2013-06-05 22:52:00,
2013-06-05 16:02:00,77.0,46.0,-100.00,WNW,285,6.0,10.0,34,-99.99,,,-99.99,,2013-06-05 23:02:00,
2013-06-05 16:12:00,77.0,47.0,-100.00,West,281,6.0,14.0,35,-99.99,,,-99.99,,2013-06-05 23:12:00,
2013-06-05 16:21:00,77.0,49.0,-100.00,West,281,6.0,12.0,37,-99.99,,,-99.99,,2013-06-05 23:21:00,
2013-06-05 16:32:00,76.0,49.0,-100.00,West,264,7.0,11.0,39,-99.99,,,-99.99,,2013-06-05 23:32:00,
2013-06-05 16:42:00,76.0,50.0,-100.00,West,270,6.0,11.0,40,-99.99,,,-99.99,,2013-06-05 23:42:00,
2013-06-05 16:52:00,76.0,50.0,-100.00,West,270,6.0,11.0,40,-99.99,,,-99.99,,2013-06-05 23:52:00,
2013-06-05 17:02:00,74.0,51.0,-100.00,West,271,6.0,11.0,44,-99.99,,,-99.99,,2013-06-06 00:02:00,
2013-06-05 17:12:00,74.0,51.0,-100.00,WNW,285,6.0,12.0,44,-99.99,,,-99.99,,2013-06-06 00:12:00,
2013-06-05 17:22:00,74.0,51.0,-100.00,WNW,282,6.0,11.0,45,-99.99,,,-99.99,,2013-06-06 00:22:00,
2013-06-05 17:32:00,73.0,51.0,-100.00,WNW,284,6.0,10.0,46,-99.99,,,-99.99,,2013-06-06 00:32:00,
2013-06-05 17:42:00,73.0,52.0,-100.00,West,279,6.0,10.0,47,-99.99,,,-99.99,,2013-06-06 00:42:00,
2013-06-05 17:51:00,73.0,52.0,-100.00,West,279,6.0,10.0,47,-99.99,,,-99.99,,2013-06-06 00:51:00,
2013-06-05 18:02:00,72.0,53.0,-100.00,WNW,286,6.0,11.0,51,-99.99,,,-99.99,,2013-06-06 01:02:00,
2013-06-05 18:12:00,71.0,52.0,-100.00,West,280,6.0,10.0,52,-99.99,,,-99.99,,2013-06-06 01:12:00,
2013-06-05 18:21:00,71.0,53.0,-100.00,West,280,5.0,11.0,53,-99.99,,,-99.99,,2013-06-06 01:21:00,
2013-06-05 18:32:00,70.0,53.0,-100.00,West,273,6.0,9.0,54,-99.99,,,-99.99,,2013-06-06 01:32:00,
2013-06-05 18:42:00,69.0,52.0,-100.00,West,267,4.0,7.0,55,-99.99,,,-99.99,,2013-06-06 01:42:00,
2013-06-05 18:52:00,69.0,52.0,-100.00,West,267,4.0,7.0,55,-99.99,,,-99.99,,2013-06-06 01:52:00,
2013-06-05 19:01:00,69.0,53.0,-100.00,WNW,289,4.0,8.0,56,-99.99,,,-99.99,,2013-06-06 02:01:00,
2013-06-05 19:12:00,68.0,53.0,-100.00,WNW,295,4.0,8.0,59,-99.99,,,-99.99,,2013-06-06 02:12:00,
2013-06-05 19:22:00,67.0,53.0,-100.00,WNW,296,4.0,6.0,60,-99.99,,,-99.99,,2013-06-06 02:22:00,
2013-06-05 19:32:00,66.0,53.0,-100.00,WNW,298,3.0,5.0,62,-99.99,,,-99.99,,2013-06-06 02:32:00,
2013-06-05 19:42:00,66.0,53.0,-100.00,WNW,298,3.0,5.0,62,-99.99,,,-99.99,,2013-06-06 02:42:00,
2013-06-05 19:51:00,66.0,53.0,-100.00,WNW,298,3.0,5.0,62,-99.99,,,-99.99,,2013-06-06 02:51:00,
2013-06-05 20:02:00,65.0,53.0,-100.00,WNW,294,2.0,3.0,66,-99.99,,,-99.99,,2013-06-06 03:02:00,
2013-06-05 20:12:00,64.0,53.0,-100.00,NW,306,1.0,3.0,67,-99.99,,,-99.99,,2013-06-06 03:12:00,
2013-06-05 20:22:00,63.0,53.0,-100.00,NW,324,1.0,3.0,70,-99.99,,,-99.99,,2013-06-06 03:22:00,
2013-06-05 20:33:00,62.0,52.0,-100.00,East,97,1.0,2.0,70,-99.99,,,-99.99,,2013-06-06 03:33:00,
2013-06-05 20:43:00,62.0,51.0,-100.00,SE,129,2.0,4.0,68,-99.99,,,-99.99,,2013-06-06 03:43:00,
2013-06-05 20:52:00,62.0,50.0,-100.00,SE,131,2.0,4.0,64,-99.99,,,-99.99,,2013-06-06 03:52:00,
2013-06-05 21:02:00,62.0,45.0,-100.00,ESE,119,1.0,2.0,54,-99.99,,,-99.99,,2013-06-06 04:02:00,
2013-06-05 21:13:00,63.0,43.0,-100.00,ESE,102,3.0,4.0,48,-99.99,,,-99.99,,2013-06-06 04:13:00,
2013-06-05 21:22:00,66.0,32.0,-100.00,ESE,102,3.0,4.0,28,-99.99,,,-99.99,,2013-06-06 04:22:00,
2013-06-05 21:33:00,66.0,30.0,-100.00,NE,56,3.0,5.0,26,-99.99,,,-99.99,,2013-06-06 04:33:00,
2013-06-05 21:42:00,67.0,28.0,-100.00,NNE,31,4.0,5.0,23,-99.99,,,-99.99,,2013-06-06 04:42:00,
2013-06-05 21:52:00,67.0,28.0,-100.00,NNE,31,4.0,5.0,23,-99.99,,,-99.99,,2013-06-06 04:52:00,
2013-06-05 22:02:00,67.0,30.0,-100.00,ENE,57,3.0,5.0,25,-99.99,,,-99.99,,2013-06-06 05:02:00,
2013-06-05 22:12:00,67.0,31.0,-100.00,ENE,76,3.0,4.0,26,-99.99,,,-99.99,,2013-06-06 05:12:00,
2013-06-05 22:22:00,66.0,27.0,-100.00,ENE,78,3.0,4.0,23,-99.99,,,-99.99,,2013-06-06 05:22:00,
2013-06-05 22:32:00,67.0,27.0,-100.00,East,83,3.0,4.0,22,-99.99,,,-99.99,,2013-06-06 05:32:00,
2013-06-05 22:42:00,66.0,23.0,-100.00,East,87,3.0,5.0,19,-99.99,,,-99.99,,2013-06-06 05:42:00,
2013-06-05 22:52:00,66.0,20.0,-100.00,East,79,2.0,4.0,17,-99.99,,,-99.99,,2013-06-06 05:52:00,
2013-06-05 23:02:00,67.0,22.0,-100.00,East,98,1.0,2.0,18,-99.99,,,-99.99,,2013-06-06 06:02:00,
2013-06-05 23:12:00,67.0,23.0,-100.00,East,100,4.0,6.0,19,-99.99,,,-99.99,,2013-06-06 06:12:00,
2013-06-05 23:22:00,66.0,25.0,-100.00,ESE,102,5.0,6.0,21,-99.99,,,-99.99,,2013-06-06 06:22:00,
2013-06-05 23:32:00,65.0,26.0,-100.00,East,101,5.0,6.0,23,-99.99,,,-99.99,,2013-06-06 06:32:00,
2013-06-05 23:42:00,65.0,26.0,-100.00,East,89,4.0,5.0,23,-99.99,,,-99.99,,2013-06-06 06:42:00,
2013-06-05 23:52:00,65.0,26.0,-100.00,East,100,4.0,7.0,23,-99.99,,,-99.99,,2013-06-06 06:52:00,